Location: Plymouth
(43.7570°N, 71.6890°W)
Time: 11:51:11
(UTC-05:00)

Amateur Radio Satellites - All Passes

Search period start: 27 January 2015 11:21
Search period end: 28 January 2015 11:21
Location: Plymouth, 43.7570°N, 71.6890°W

Satellite Date Start Highest point End Downlink Frequencies (MHz)
Time Altitude Azimuth
DX 1 27 Jan 11:22:32 11:25:07 15° 297° (WNW) 11:27:32 434.975-435.025
TISAT 1 27 Jan 11:23:06 11:26:42 26° 94° (E) 11:30:20 437.305
FUNcube-1 27 Jan 11:27:27 11:30:09 16° 297° (WNW) 11:32:41 145.935
ESTCUBE 1 27 Jan 11:30:31 11:35:00 62° 286° (WNW) 11:39:27 437.505/2401.250
50 SAT 27 Jan 11:31:08 11:34:33 25° 292° (WNW) 11:37:52 437.505
PCSat 27 Jan 11:31:46 11:34:31 14° 33° (NNE) 11:37:27 145.827
HUMSAT D 27 Jan 11:34:39 11:37:49 20° 294° (WNW) 11:40:51 437.325/437.525
AISAT 27 Jan 11:35:25 11:39:13 26° 293° (WNW) 11:42:55 437.250
Oscar 19 27 Jan 11:41:49 11:46:31 37° 68° (ENE) 11:51:18 437.125/150
AIST 2 27 Jan 11:44:06 11:48:24 69° 54° (NE) 11:52:38 435.215
PHONESAT 2.4 27 Jan 11:48:07 11:51:38 50° 177° (S) 11:55:12 2401.200-2431.200
ITAMSAT 1 27 Jan 11:54:25 11:57:52 19° 62° (ENE) 12:01:30 435.822/435.867
BEESAT 2 27 Jan 12:00:19 12:04:11 35° 243° (WSW) 12:07:56 435.950
VELOX 1 27 Jan 12:05:56 12:08:28 15° 298° (WNW) 12:10:50 145.980
SPROUT 27 Jan 12:13:34 12:17:58 87° 277° (W) 12:22:19 437.525
BEESAT 3 27 Jan 12:17:14 12:20:28 22° 247° (WSW) 12:23:35 437.485
RS-15 27 Jan 12:17:17 12:27:51 44° 37° (NE) 12:38:57 29.354- 29.394
CUBEBUG 1 27 Jan 12:20:15 12:23:41 22° 294° (WNW) 12:27:01 437.445
SWISSCUBE 27 Jan 12:22:40 12:26:05 20° 91° (E) 12:29:38 437.505
AIST 1 27 Jan 12:26:20 12:29:35 20° 290° (WNW) 12:32:44
SO-50 27 Jan 12:29:30 12:32:54 19° 324° (NW) 12:36:18 436.795
Gurwin Techsat 1B 27 Jan 12:37:21 12:41:53 30° 66° (ENE) 12:46:32 435.225
BEESAT 27 Jan 12:38:32 12:42:30 26° 94° (E) 12:46:32 436.000
VERMONT LUNAR 27 Jan 12:40:29 12:43:49 40° 191° (S) 12:47:09 437.305
ITUPSAT 1 27 Jan 12:40:58 12:45:00 27° 94° (E) 12:49:05 437.325
GONETS M04 27 Jan 12:47:53 12:56:34 76° 265° (W) 13:05:12
HORYU 2 27 Jan 12:49:19 12:50:37 11° 60° (ENE) 12:52:10 437.375
TISAT 1 27 Jan 12:58:45 13:02:32 30° 291° (WNW) 13:06:16 437.305
PCSat 27 Jan 13:13:45 13:19:09 62° 55° (NE) 13:24:32 145.827
Oscar 19 27 Jan 13:21:24 13:25:57 30° 266° (W) 13:30:28 437.125/150
CUSAT 1 27 Jan 13:23:24 13:26:40 14° 51° (NE) 13:29:52 437.405
AIST 2 27 Jan 13:24:26 13:26:33 13° 250° (WSW) 13:28:25 435.215
PHONESAT 2.4 27 Jan 13:26:33 13:29:58 38° 193° (SSW) 13:33:24 2401.200-2431.200
ITAMSAT 1 27 Jan 13:31:49 13:36:56 63° 258° (WSW) 13:42:07 435.822/435.867
STARS 27 Jan 13:34:18 13:36:05 12° 88° (E) 13:38:08 437.465
KKS-1 27 Jan 13:34:42 13:37:55 20° 91° (E) 13:41:14 437.445
AO-7 27 Jan 13:38:57 13:46:11 35° 58° (ENE) 13:53:36 29.400- 29.500
SWISSCUBE 27 Jan 13:59:40 14:04:16 47° 289° (WNW) 14:08:50 437.505
JAS-2 27 Jan 14:08:05 14:10:43 14° 60° (ENE) 14:13:32 435.910
BEESAT 27 Jan 14:16:05 14:20:27 36° 291° (WNW) 14:24:47 436.000
Gurwin Techsat 1B 27 Jan 14:16:52 14:21:47 38° 263° (W) 14:26:43 435.225
ITUPSAT 1 27 Jan 14:18:37 14:22:59 35° 292° (WNW) 14:27:18 437.325
VERMONT LUNAR 27 Jan 14:19:10 14:21:28 16° 207° (SSW) 14:23:42 437.305
HORYU 2 27 Jan 14:22:11 14:26:42 87° 256° (WSW) 14:31:14 437.375
DANDE 27 Jan 14:24:23 14:30:55 36° 65° (ENE) 14:36:04 436.750
RS-15 27 Jan 14:29:50 14:41:06 69° 242° (WSW) 14:52:49 29.354- 29.394
M-CUBED/EXP-1 PRIME 27 Jan 14:34:05 14:36:13 16° 99° (E) 14:38:28 437.505
GONETS M04 27 Jan 14:47:31 14:52:04 15° 284° (WNW) 14:56:03
PCSat 27 Jan 14:58:10 15:02:09 20° 253° (WSW) 15:05:58 145.827
CUSAT 1 27 Jan 15:04:40 15:11:27 82° 78° (ENE) 15:16:27 437.405
PHONESAT 2.4 27 Jan 15:05:55 15:08:01 14° 209° (SSW) 15:10:04 2401.200-2431.200
AUBIESAT-1 27 Jan 15:08:16 15:11:24 39° 104° (ESE) 15:14:36 437.475
STARS 27 Jan 15:08:41 15:13:08 66° 286° (WNW) 15:17:32 437.465
KKS-1 27 Jan 15:10:33 15:14:50 43° 289° (WNW) 15:19:03 437.445
Cubesat XI-IV 27 Jan 15:23:50 15:24:40 10° 56° (NE) 15:25:49 437.490
AO-7 27 Jan 15:30:23 15:38:39 60° 257° (WSW) 15:46:56 29.400- 29.500
CUTE-I 27 Jan 15:42:07 15:45:01 15° 59° (ENE) 15:48:09 437.470
JAS-2 27 Jan 15:49:46 15:55:21 81° 256° (WSW) 16:00:37 435.910
DANDE 27 Jan 16:08:00 16:14:28 38° 272° (W) 16:19:23 436.750
M-CUBED/EXP-1 PRIME 27 Jan 16:08:27 16:11:21 28° 295° (WNW) 16:14:15 437.505
O/OREOS (USA 219) 27 Jan 16:14:47 16:19:13 65° 111° (ESE) 16:23:43 437.305
MOZHAYETS 4 27 Jan 16:34:41 16:39:14 64° 100° (E) 16:43:46
AUBIESAT-1 27 Jan 16:44:28 16:46:07 13° 300° (WNW) 16:47:40 437.475
RS-15 27 Jan 16:45:18 16:51:48 16° 261° (W) 16:57:28 29.354- 29.394
CUSAT 1 27 Jan 16:49:55 16:53:10 14° 283° (WNW) 16:55:46 437.405
Cubesat XI-IV 27 Jan 16:58:38 17:03:54 68° 73° (ENE) 17:09:14 437.490
CUTE-I 27 Jan 17:19:10 17:24:30 82° 256° (WSW) 17:29:53 437.470
AO-7 27 Jan 17:31:58 17:33:31 10° 279° (W) 17:34:16 29.400- 29.500
PRISM 27 Jan 17:37:20 17:40:56 29° 96° (E) 17:44:35 437.425
SO-50 27 Jan 17:37:41 17:41:11 20° 36° (NE) 17:44:49 436.795
HO-68 27 Jan 17:41:29 17:45:13 16° 51° (NE) 17:49:16 435.675
STRAND 1 27 Jan 17:42:15 17:45:48 19° 90° (E) 17:49:32 437.568
YUBILEINY 27 Jan 17:54:56 18:00:27 20° 79° (E) 18:06:25 435.215
O/OREOS (USA 219) 27 Jan 17:56:17 17:59:11 16° 310° (NW) 18:01:57 437.305
MOZHAYETS 4 27 Jan 18:13:22 18:16:02 15° 297° (WNW) 18:18:33
CUBESAT XI-V 27 Jan 18:21:32 18:26:13 64° 101° (E) 18:30:53 437.345
CUTE 1.7 + AOD 2 27 Jan 18:22:07 18:22:50 10° 61° (ENE) 18:23:47 437.475
BRITE-PL 27 Jan 18:27:54 18:31:41 22° 63° (ENE) 18:35:48 437.365/2234.400
GOMX 1 27 Jan 18:33:33 18:36:52 18° 61° (ENE) 18:40:29 467.674
Cubesat XI-IV 27 Jan 18:41:13 18:44:37 16° 271° (W) 18:47:49 437.490
SEEDS 27 Jan 18:52:59 18:55:55 19° 66° (ENE) 18:58:59 437.485
DOVE 4 27 Jan 18:54:18 18:57:54 20° 63° (ENE) 19:01:45 437.250
CINEMA 3 27 Jan 18:56:59 18:58:58 13° 60° (ENE) 19:01:12 145.822/145.860
CUTE-I 27 Jan 19:04:32 19:05:34 10° 276° (W) 19:06:12 437.470
PRISM 27 Jan 19:12:57 19:16:25 25° 292° (WNW) 19:19:48 437.425
SO-50 27 Jan 19:17:28 19:22:24 83° 237° (WSW) 19:27:20 436.795
STRAND 1 27 Jan 19:20:23 19:25:26 56° 289° (WNW) 19:30:27 437.568
COMPASS 1 27 Jan 19:21:23 19:25:04 30° 70° (ENE) 19:28:49 437.405
HO-68 27 Jan 19:24:46 19:31:51 70° 70° (ENE) 19:38:59 435.675
UWE-3 27 Jan 19:29:07 19:30:53 12° 61° (ENE) 19:32:53 435.000/436.395/437.385
CANX-2 27 Jan 19:29:32 19:33:45 57° 74° (ENE) 19:37:58 2200.000
YUBILEINY 27 Jan 19:47:33 19:56:15 87° 278° (W) 20:05:02 435.215
AAUSAT CUBESAT 2 27 Jan 19:48:40 19:52:45 52° 74° (ENE) 19:56:52 437.432
Oscar 11 27 Jan 19:49:27 19:53:08 28° 68° (ENE) 19:56:52 145.826/435.025
CUTE 1.7 + AOD 2 27 Jan 19:53:53 19:58:11 86° 258° (WSW) 20:02:30 437.475
DELFI C3 27 Jan 19:55:10 19:58:27 24° 68° (ENE) 20:01:49 145.870
CUBESAT XI-V 27 Jan 20:00:21 20:03:13 16° 297° (WNW) 20:05:56 437.345
BRITE-PL 27 Jan 20:04:53 20:09:47 54° 262° (W) 20:15:05 437.365/2234.400
GOMX 1 27 Jan 20:09:25 20:14:25 68° 260° (W) 20:19:47 467.674
CUBEBUG 2 27 Jan 20:18:32 20:22:58 41° 71° (ENE) 20:27:30 437.445
UKube-1 27 Jan 20:23:25 20:27:25 38° 70° (ENE) 20:31:29 .
SEEDS 27 Jan 20:27:26 20:31:30 42° 262° (W) 20:35:34 437.485
DOVE 4 27 Jan 20:30:17 20:35:13 58° 261° (W) 20:40:25 437.250
CINEMA 3 27 Jan 20:30:32 20:35:27 88° 79° (E) 20:40:33 145.822/145.860
ZACube-1 27 Jan 20:34:11 20:38:30 42° 71° (ENE) 20:42:53 437.345
DX 1 27 Jan 20:41:44 20:46:01 63° 73° (ENE) 20:50:22 434.975-435.025
50 SAT 27 Jan 20:45:07 20:48:18 22° 67° (ENE) 20:51:34 437.505
FUNcube-1 27 Jan 20:46:35 20:51:04 55° 73° (ENE) 20:55:36 145.935
HUMSAT D 27 Jan 20:51:34 20:55:29 35° 70° (ENE) 20:59:29 437.325/437.525
AIST 1 27 Jan 20:55:33 20:56:45 11° 64° (ENE) 20:58:12
ESTCUBE 1 27 Jan 20:56:42 20:59:25 16° 63° (ENE) 21:02:17 437.505/2401.250
COMPASS 1 27 Jan 20:57:18 21:00:51 25° 267° (W) 21:04:19 437.405
AISAT 27 Jan 20:58:02 21:02:04 36° 69° (ENE) 21:06:11 437.250
SO-50 27 Jan 21:00:49 21:02:19 11° 252° (WSW) 21:03:30 436.795
UWE-3 27 Jan 21:02:08 21:06:49 86° 258° (WSW) 21:11:33 435.000/436.395/437.385
CANX-2 27 Jan 21:07:49 21:10:08 14° 271° (W) 21:12:16 2200.000
HO-68 27 Jan 21:14:42 21:20:17 23° 270° (W) 21:25:39 435.675
Oscar 11 27 Jan 21:25:27 21:29:16 29° 265° (W) 21:33:03 145.826/435.025
AAUSAT CUBESAT 2 27 Jan 21:26:22 21:28:48 14° 271° (W) 21:31:03 437.432
VELOX 1 27 Jan 21:26:51 21:31:14 69° 74° (ENE) 21:35:42 145.980
DELFI C3 27 Jan 21:30:02 21:33:38 29° 265° (W) 21:37:11 145.870
NANOSAT C BR1 27 Jan 21:36:47 21:38:20 12° 88° (E) 21:40:05 145.865
CUBEBUG 1 27 Jan 21:40:58 21:45:00 39° 71° (ENE) 21:49:06 437.445
YUBILEINY 27 Jan 21:48:27 21:54:38 20° 302° (WNW) 22:00:29 435.215
QB50P2 27 Jan 21:49:05 21:51:50 17° 91° (E) 21:54:43 145.880/145.840
UNISAT 6 27 Jan 21:55:42 21:59:45 32° 96° (E) 22:03:43 437.425
CUBEBUG 2 27 Jan 21:56:04 21:59:52 23° 268° (W) 22:03:36 437.445
QB50P1 27 Jan 21:58:40 22:01:55 21° 92° (E) 22:05:15 145.935-145.965
UKube-1 27 Jan 22:00:27 22:03:46 21° 267° (W) 22:07:00 .
ZACube-1 27 Jan 22:11:31 22:15:05 21° 269° (W) 22:18:34 437.345
CINEMA 3 27 Jan 22:11:49 22:13:29 11° 276° (W) 22:14:52 145.822/145.860
POLYITAN 1 27 Jan 22:11:53 22:15:40 29° 95° (E) 22:19:28 437.675
ISS 27 Jan 22:16:10 22:19:21 51° 143° (SE) 22:22:35 145.825
TISAT 1 27 Jan 22:17:12 22:20:34 24° 67° (ENE) 22:24:02 437.305
BUGSAT 1 27 Jan 22:19:17 22:22:55 27° 94° (E) 22:26:36 437.445
50 SAT 27 Jan 22:19:29 22:23:16 33° 264° (W) 22:27:03 437.505
DX 1 27 Jan 22:20:42 22:22:47 13° 271° (W) 22:24:40 434.975-435.025
FUNcube-1 27 Jan 22:24:51 22:27:49 16° 271° (W) 22:30:37 145.935
HUMSAT D 27 Jan 22:27:53 22:31:24 23° 267° (W) 22:34:51 437.325/437.525
AIST 1 27 Jan 22:30:43 22:35:04 73° 264° (W) 22:39:25
ANTELSAT 27 Jan 22:31:16 22:35:47 79° 102° (ESE) 22:40:10 437.575/2403.000
ESTCUBE 1 27 Jan 22:31:30 22:35:55 57° 260° (W) 22:40:21 437.505/2401.250
POPSAT HIP 1 27 Jan 22:32:36 22:36:47 48° 99° (E) 22:40:58 437.405
AISAT 27 Jan 22:35:13 22:38:49 23° 267° (W) 22:42:22 437.250
DUCHIFAT 1 27 Jan 22:36:16 22:40:29 52° 100° (E) 22:44:41 145.980
TIGRISAT 27 Jan 22:40:04 22:44:36 86° 281° (W) 22:48:58 435.000
VELOX 1 27 Jan 23:06:36 23:08:26 12° 273° (W) 23:10:00 145.980
SPROUT 27 Jan 23:08:54 23:13:13 85° 76° (ENE) 23:17:34 437.525
NANOSAT C BR1 27 Jan 23:10:27 23:14:45 66° 286° (WNW) 23:18:59 145.865
CUBEBUG 1 27 Jan 23:18:18 23:21:36 20° 268° (W) 23:24:47 437.445
QB50P2 27 Jan 23:23:54 23:28:04 46° 288° (WNW) 23:32:10 145.880/145.840
SWISSCUBE 27 Jan 23:30:38 23:34:34 27° 67° (ENE) 23:38:36 437.505
UNISAT 6 27 Jan 23:32:42 23:36:27 26° 293° (WNW) 23:40:02 437.425
QB50P1 27 Jan 23:33:58 23:37:59 37° 289° (WNW) 23:41:55 145.935-145.965
BEESAT 27 Jan 23:46:22 23:50:39 35° 69° (ENE) 23:55:00 436.000
POLYITAN 1 27 Jan 23:47:52 23:51:34 27° 292° (WNW) 23:55:10 437.675
ITUPSAT 1 27 Jan 23:49:09 23:53:28 36° 69° (ENE) 23:57:51 437.325
TISAT 1 27 Jan 23:52:26 23:56:17 32° 264° (W) 00:00:08 437.305
ISS 27 Jan 23:53:00 23:56:00 31° 341° (NNW) 23:59:01 145.825
Oscar 19 27 Jan 23:54:38 23:55:42 11° 85° (E) 23:57:08 437.125/150
BUGSAT 1 27 Jan 23:54:41 23:58:25 29° 291° (WNW) 00:02:05 437.445
GONETS M04 27 Jan 23:55:44 00:02:29 27° 82° (E) 00:09:30
POPSAT HIP 1 28 Jan 00:09:26 00:12:23 18° 295° (WNW) 00:15:11 437.405
ANTELSAT 28 Jan 00:10:09 00:12:00 12° 299° (WNW) 00:13:38 437.575/2403.000
DUCHIFAT 1 28 Jan 00:13:14 00:15:59 16° 296° (WNW) 00:18:36 145.980
TIGRISAT 28 Jan 00:19:59 00:20:39 10° 301° (WNW) 00:21:04 435.000
STARS 28 Jan 00:32:53 00:35:16 15° 62° (ENE) 00:37:49 437.465
KKS-1 28 Jan 00:34:26 00:37:50 22° 66° (ENE) 00:41:21 437.445
O/OREOS (USA 219) 28 Jan 00:44:55 00:48:14 20° 52° (NE) 00:51:38 437.305
SWISSCUBE 28 Jan 01:07:59 01:12:21 35° 264° (W) 01:16:42 437.505
M-CUBED/EXP-1 PRIME 28 Jan 01:23:51 01:27:33 35° 67° (ENE) 01:31:01 437.505
BEESAT 28 Jan 01:24:32 01:28:36 27° 266° (W) 01:32:35 436.000
ITUPSAT 1 28 Jan 01:27:30 01:31:29 26° 266° (W) 01:35:26 437.325
ISS 28 Jan 01:30:39 01:33:12 20° 1° (N) 01:35:46 145.825
Oscar 19 28 Jan 01:30:45 01:35:57 88° 99° (E) 01:41:06 437.125/150
ITAMSAT 1 28 Jan 01:43:22 01:48:19 42° 98° (E) 01:53:17 435.822/435.867
AIST 2 28 Jan 01:47:07 01:47:49 10° 109° (ESE) 01:48:47 435.215
GONETS M04 28 Jan 01:49:56 01:58:41 69° 282° (WNW) 02:07:24
BEESAT 2 28 Jan 01:56:18 01:59:54 31° 116° (ESE) 02:03:37 435.950
AUBIESAT-1 28 Jan 01:58:02 02:02:05 79° 71° (ENE) 02:05:48 437.475
STARS 28 Jan 02:06:53 02:11:18 64° 259° (W) 02:15:46 437.465
KKS-1 28 Jan 02:10:03 02:14:17 40° 262° (W) 02:18:32 437.445
BEESAT 3 28 Jan 02:11:36 02:15:34 50° 119° (ESE) 02:19:36 437.485
HORYU 2 28 Jan 02:13:39 02:16:24 16° 90° (E) 02:19:18 437.375
O/OREOS (USA 219) 28 Jan 02:23:31 02:28:01 52° 251° (WSW) 02:32:28 437.305
Gurwin Techsat 1B 28 Jan 02:31:08 02:36:29 79° 102° (ESE) 02:41:49 435.225
CUSAT 1 28 Jan 02:31:37 02:37:05 21° 82° (E) 02:43:01 437.405
RS-15 28 Jan 02:49:12 02:54:25 16° 99° (E) 03:00:28 29.354- 29.394
JAS-2 28 Jan 02:59:33 03:00:20 10° 86° (E) 03:01:36 435.910
M-CUBED/EXP-1 PRIME 28 Jan 02:59:38 03:02:38 19° 260° (W) 03:05:24 437.505
ISS 28 Jan 03:07:17 03:10:22 35° 21° (NNE) 03:13:28 145.825
Oscar 19 28 Jan 03:12:03 03:14:39 14° 301° (WNW) 03:17:01 437.125/150
AIST 2 28 Jan 03:21:36 03:25:52 84° 304° (NW) 03:30:12 435.215
ITAMSAT 1 28 Jan 03:23:17 03:27:40 27° 295° (WNW) 03:31:58 435.822/435.867
AO-7 28 Jan 03:30:27 03:38:20 45° 99° (E) 03:46:12 29.400- 29.500
BEESAT 2 28 Jan 03:34:24 03:38:07 30° 314° (NW) 03:41:51 435.950
DANDE 28 Jan 03:34:38 03:42:17 47° 91° (E) 03:50:30 436.750
MOZHAYETS 4 28 Jan 03:37:50 03:42:23 69° 75° (ENE) 03:46:59
HORYU 2 28 Jan 03:49:07 03:53:27 50° 288° (WNW) 03:57:44 437.375
BEESAT 3 28 Jan 03:50:46 03:54:00 21° 319° (NW) 03:57:12 437.485
GONETS M04 28 Jan 03:52:42 03:57:38 15° 307° (NW) 04:02:03
PCSat 28 Jan 03:56:50 04:01:53 42° 114° (ESE) 04:07:01 145.827
YUBILEINY 28 Jan 04:04:06 04:04:55 10° 47° (NE) 04:06:24 435.215
CUSAT 1 28 Jan 04:11:01 04:19:12 87° 99° (E) 04:27:41 437.405
Gurwin Techsat 1B 28 Jan 04:12:40 04:15:53 16° 300° (WNW) 04:18:55 435.225
PRISM 28 Jan 04:29:30 04:32:54 26° 68° (ENE) 04:36:24 437.425
JAS-2 28 Jan 04:40:44 04:46:20 78° 103° (ESE) 04:52:37 435.910
ISS 28 Jan 04:43:47 04:46:57 42° 219° (SW) 04:50:04 145.825
RS-15 28 Jan 04:54:11 05:04:57 72° 119° (ESE) 05:15:55 29.354- 29.394
STRAND 1 28 Jan 04:59:12 05:03:40 32° 67° (ENE) 05:08:12 437.568
AIST 2 28 Jan 05:02:43 05:05:12 15° 325° (NW) 05:07:36 435.215
Cubesat XI-IV 28 Jan 05:15:12 05:19:29 24° 92° (E) 05:23:53 437.490
DANDE 28 Jan 05:17:58 05:25:52 46° 290° (WNW) 05:34:05 436.750
MOZHAYETS 4 28 Jan 05:18:07 05:20:13 13° 273° (W) 05:22:05
AO-7 28 Jan 05:23:21 05:31:12 46° 298° (WNW) 05:38:54 29.400- 29.500
CUBESAT XI-V 28 Jan 05:26:14 05:30:48 71° 75° (ENE) 05:35:25 437.345
CUTE-I 28 Jan 05:35:13 05:40:07 36° 96° (E) 05:45:04 437.470
PCSat 28 Jan 05:40:34 05:45:27 33° 313° (NW) 05:50:19 145.827
YUBILEINY 28 Jan 05:56:08 06:04:36 51° 73° (ENE) 06:13:08 435.215
CUSAT 1 28 Jan 05:56:41 06:03:22 25° 300° (WNW) 06:09:48 437.405
PRISM 28 Jan 06:04:51 06:08:25 27° 265° (W) 06:11:55 437.425
JAS-2 28 Jan 06:27:28 06:31:04 17° 298° (WNW) 06:34:38 435.910
STRAND 1 28 Jan 06:38:15 06:42:50 33° 264° (W) 06:47:26 437.568
Cubesat XI-IV 28 Jan 06:54:42 06:59:52 47° 290° (WNW) 07:04:58 437.490
HO-68 28 Jan 06:55:34 06:56:15 10° 82° (E) 06:57:34 435.675
CUBESAT XI-V 28 Jan 07:06:54 07:08:53 12° 273° (W) 07:10:37 437.345
RS-15 28 Jan 07:08:02 07:18:15 42° 325° (NW) 07:28:35 29.354- 29.394
DANDE 28 Jan 07:09:12 07:11:54 11° 313° (NW) 07:14:02 436.750
CUTE-I 28 Jan 07:15:23 07:20:10 32° 294° (WNW) 07:24:52 437.470
AO-7 28 Jan 07:19:12 07:22:02 12° 320° (NW) 07:24:27 29.400- 29.500
CUTE 1.7 + AOD 2 28 Jan 07:39:29 07:41:51 15° 89° (E) 07:44:22 437.475
YUBILEINY 28 Jan 07:53:22 08:01:16 38° 274° (W) 08:09:01 435.215
ANTELSAT 28 Jan 07:58:50 07:59:45 11° 60° (ENE) 08:00:55 437.575/2403.000
TIGRISAT 28 Jan 08:06:19 08:08:11 13° 61° (ENE) 08:10:16 435.000
BRITE-PL 28 Jan 08:08:19 08:13:53 51° 97° (E) 08:19:15 437.365/2234.400
GOMX 1 28 Jan 08:10:28 08:15:31 38° 95° (E) 08:20:24 467.674
SEEDS 28 Jan 08:11:00 08:14:36 27° 95° (E) 08:18:13 437.485
CINEMA 3 28 Jan 08:25:38 08:29:13 21° 90° (E) 08:32:48 145.822/145.860
DOVE 4 28 Jan 08:28:40 08:33:34 39° 95° (E) 08:38:17 437.250
NANOSAT C BR1 28 Jan 08:31:38 08:33:11 12° 62° (ENE) 08:34:57 145.865
HO-68 28 Jan 08:38:28 08:45:35 65° 102° (ESE) 08:52:42 435.675
COMPASS 1 28 Jan 08:39:04 08:43:07 47° 99° (E) 08:47:08 437.405
VERMONT LUNAR 28 Jan 08:43:23 08:45:59 20° 156° (SSE) 08:48:38 437.305
QB50P2 28 Jan 08:44:01 08:46:39 17° 64° (ENE) 08:49:27 145.880/145.840
CANX-2 28 Jan 08:49:33 08:53:49 85° 286° (WNW) 08:58:02 2200.000
UWE-3 28 Jan 08:52:23 08:55:24 18° 90° (E) 08:58:31 435.000/436.395/437.385
QB50P1 28 Jan 08:53:18 08:56:23 20° 66° (ENE) 08:59:34 145.935-145.965
UNISAT 6 28 Jan 08:55:45 09:00:03 36° 70° (ENE) 09:04:23 437.425
AAUSAT CUBESAT 2 28 Jan 09:06:16 09:10:27 84° 102° (ESE) 09:14:36 437.432
POLYITAN 1 28 Jan 09:06:37 09:10:14 27° 68° (ENE) 09:13:56 437.675
DELFI C3 28 Jan 09:08:41 09:12:22 33° 96° (E) 09:16:04 145.870
Oscar 11 28 Jan 09:10:59 09:15:08 45° 98° (E) 09:19:16 145.826/435.025
BUGSAT 1 28 Jan 09:11:18 09:14:30 23° 67° (ENE) 09:17:49 437.445
CUTE 1.7 + AOD 2 28 Jan 09:14:02 09:18:10 50° 287° (WNW) 09:22:14 437.475
VELOX 1 28 Jan 09:18:23 09:20:05 12° 88° (E) 09:22:02 145.980
RS-15 28 Jan 09:25:58 09:34:36 25° 358° (N) 09:43:27 29.354- 29.394
POPSAT HIP 1 28 Jan 09:26:49 09:30:51 43° 71° (ENE) 09:34:58 437.405
DUCHIFAT 1 28 Jan 09:30:09 09:34:13 46° 72° (ENE) 09:38:22 145.980
ANTELSAT 28 Jan 09:31:09 09:35:52 82° 78° (ENE) 09:40:37 437.575/2403.000
SO-50 28 Jan 09:34:14 09:37:47 23° 113° (ESE) 09:41:32 436.795
PHONESAT 2.4 28 Jan 09:34:37 09:37:37 25° 159° (SSE) 09:40:40 2401.200-2431.200
TIGRISAT 28 Jan 09:39:37 09:44:20 85° 254° (WSW) 09:49:05 435.000
CUBEBUG 2 28 Jan 09:45:09 09:49:48 76° 102° (ESE) 09:54:15 437.445
UKube-1 28 Jan 09:45:35 09:49:55 59° 101° (E) 09:54:13 .
SEEDS 28 Jan 09:46:50 09:50:24 27° 291° (WNW) 09:53:53 437.485
BRITE-PL 28 Jan 09:47:23 09:52:04 26° 295° (WNW) 09:56:32 437.365/2234.400
GOMX 1 28 Jan 09:48:42 09:53:32 32° 293° (WNW) 09:58:08 467.674
50 SAT 28 Jan 09:57:45 10:01:16 28° 95° (E) 10:04:48 437.505
ZACube-1 28 Jan 09:58:00 10:02:29 73° 102° (ESE) 10:06:48 437.345
CINEMA 3 28 Jan 10:02:02 10:06:44 46° 289° (WNW) 10:11:13 145.822/145.860
GONETS M04 28 Jan 10:04:09 10:08:04 14° 52° (NE) 10:12:31
NANOSAT C BR1 28 Jan 10:04:16 10:08:32 74° 258° (WSW) 10:12:51 145.865
AIST 2 28 Jan 10:04:55 10:07:31 16° 36° (NE) 10:10:12 435.215
DX 1 28 Jan 10:04:56 10:09:22 83° 282° (WNW) 10:13:46 434.975-435.025
DOVE 4 28 Jan 10:06:42 10:11:11 28° 294° (WNW) 10:15:25 437.250
HUMSAT D 28 Jan 10:10:13 10:14:25 54° 100° (E) 10:18:31 437.325/437.525
FUNcube-1 28 Jan 10:10:23 10:14:52 85° 284° (WNW) 10:19:12 145.935
BEESAT 2 28 Jan 10:14:40 10:18:27 32° 46° (NE) 10:22:13 435.950
COMPASS 1 28 Jan 10:15:48 10:18:32 17° 295° (WNW) 10:21:07 437.405
QB50P2 28 Jan 10:18:03 10:22:14 51° 261° (W) 10:26:28 145.880/145.840
VERMONT LUNAR 28 Jan 10:20:20 10:23:42 44° 171° (S) 10:27:04 437.305
ESTCUBE 1 28 Jan 10:23:20 10:27:10 27° 94° (E) 10:31:03 437.505/2401.250
AISAT 28 Jan 10:23:50 10:28:20 61° 101° (E) 10:32:48 437.250
HO-68 28 Jan 10:26:59 10:32:53 28° 301° (WNW) 10:38:38 435.675
UWE-3 28 Jan 10:27:56 10:32:18 46° 288° (WNW) 10:36:30 435.000/436.395/437.385
QB50P1 28 Jan 10:27:59 10:32:02 40° 262° (W) 10:36:07 145.935-145.965
BEESAT 3 28 Jan 10:29:53 10:33:56 48° 50° (NE) 10:37:56 437.485
UNISAT 6 28 Jan 10:32:59 10:36:57 25° 267° (W) 10:40:49 437.425
POLYITAN 1 28 Jan 10:42:21 10:46:09 29° 265° (W) 10:49:54 437.675
DELFI C3 28 Jan 10:44:21 10:47:27 21° 293° (WNW) 10:50:27 145.870
AAUSAT CUBESAT 2 28 Jan 10:45:13 10:45:32 10° 299° (WNW) 10:45:38 437.432
BUGSAT 1 28 Jan 10:46:10 10:49:52 32° 264° (W) 10:53:37 437.445
Oscar 11 28 Jan 10:48:01 10:51:02 18° 295° (WNW) 10:53:56 145.826/435.025
VELOX 1 28 Jan 10:52:46 10:57:15 69° 286° (WNW) 11:01:43 145.980
SPROUT 28 Jan 10:56:04 10:58:15 14° 89° (E) 11:00:37 437.525
AIST 1 28 Jan 11:01:32 11:05:43 62° 95° (E) 11:09:56
PCSat 28 Jan 11:01:46 11:03:30 12° 29° (NNE) 11:05:25 145.827
POPSAT HIP 1 28 Jan 11:04:00 11:07:01 18° 269° (W) 11:09:56 437.405
CUBEBUG 1 28 Jan 11:04:34 11:09:01 68° 101° (ESE) 11:13:26 437.445
DUCHIFAT 1 28 Jan 11:07:33 11:10:24 17° 270° (W) 11:13:06 145.980
Oscar 19 28 Jan 11:11:26 11:15:08 21° 63° (ENE) 11:18:59 437.125/150
ANTELSAT 28 Jan 11:11:48 11:13:22 11° 274° (W) 11:14:39 437.575/2403.000
PHONESAT 2.4 28 Jan 11:12:19 11:15:50 49° 175° (S) 11:19:22 2401.200-2431.200
